Search for airport 
image banner adimage banner ad
image banner ad

EVAD - Adazi

Located in Adazi, Latvia

ICAO - EVAD, IATA -

Data provided by Airmate  

General information

Coordinates: N57°5'55" E24°15'60"
Elevation is 8 feet MSL.
Magnetic variation is 5° East
Rated:
View ratings: [VIEW]


View others Airports in Riga District

Operational data

Open for public use
Current time UTC:
Current local time:
Weather at : EVRA - Riga ( 26 km )
METAR: EVRA 190850Z 21009KT 9999 SCT012 BKN035 04/03 Q1023 R18/190095 NOSIG
TAF: TAF EVRA 190801Z 1909/2009 20007KT 9999 BKN020 TEMPO 1909/1912 BKN010 OVC020 TEMPO 2000/2006 4000 BR BKN003 OVC015
View NOTAMs / SUP AIP / TFR affecting this airport [VIEW]
Communications frequencies: [VIEW]

Runways:

RWY identifierQFULength (ft)Width (ft)SurfaceLDA (ft)
15155°193649ASP+GRS1667
33335°193649ASP+GRS1568

Airport contact information

Address: Adazi Latvia

Other aviation service providers

Flight schools

Tmg

Tmg
info@tmg-ato.com+37129259085

Aviation club (not for profit)

First Fly

First Fly

Satellite view of EVAD